Weather History for KCNI - November, 2012

Change the Weather History Date:

Wednesday, November 28, 2012

  Actual Average (KGVL) Record (KGVL)
Temperature  
Mean Temperature 46 °F 48 °F  
Max Temperature 57 °F 57 °F 75 °F (1973)
Min Temperature 33 °F 40 °F 13 °F (1938)
Degree Days  
Heating Degree Days 19 17  
Month to date heating degree days 344  
Since 1 July heating degree days 502  
Moisture  
Dew Point 29 °F    
Average Humidity 61    
Maximum Humidity 87    
Minimum Humidity 23    
Precipitation  
Precipitation 0.00 in 0.21 in 1.70 in (1984)
Month to date precipitation 4.05  
Year to date precipitation 49.06  
Sea Level Pressure  
Sea Level Pressure 30.31 in    
Wind  
Wind Speed 3 mph ()    
Max Wind Speed 8 mph    
Max Gust Speed -    
Visibility 7.8 miles    
Events      
T = Trace of Precipitation, MM = Missing Value Source: Averaged Metar Reports

Daily Weather History Graph

Daily Weather History Graph

Search for Another Location

Airport or City:

Trip Planner

Search our weather history database for the weather conditions in past years. The results will help you decide how hot, cold, wet, or windy it might be!

Date:

Astronomy

Nov. 28, 2012 Rise Set
Actual Time 7:23 AM EST 5:28 PM EST
Civil Twilight 6:56 AM EST 5:55 PM EST
Nautical Twilight 6:25 AM EST 6:26 PM EST
Astronomical Twilight 5:54 AM EST 6:56 PM EST
Moon 5:42 PM EST (11/28) 7:20 AM EST (11/28)
Length of Visible Light 10h 59m
Length of Day
10h 04m
Full, 100% of the Moon is Illuminated
Nov 28
Full
Dec 6
Last Quarter
Dec 13
New
Dec 20
First Quarter
Dec 28
Full

Hourly Weather History & Observations

Time (EST) Temp. Windchill Dew Point Humidity Pressure Visibility Wind Dir Wind Speed Gust Speed Precip Events Conditions
12:35 AM 41.0 °F 38.0 °F 33.8 °F 76% 30.22 in 10.0 mi NW 4.6 mph - N/A   Clear
12:55 AM 41.0 °F 39.0 °F 33.8 °F 76% 30.22 in 10.0 mi WNW 3.5 mph - N/A   Clear
1:15 AM 39.2 °F 35.9 °F 32.0 °F 75% 30.22 in 7.0 mi WNW 4.6 mph - N/A   Clear
1:35 AM 37.4 °F 34.9 °F 32.0 °F 81% 30.22 in 5.0 mi WNW 3.5 mph - N/A   Haze
1:55 AM 37.4 °F 34.9 °F 32.0 °F 81% 30.23 in 5.0 mi NW 3.5 mph - N/A   Haze
2:15 AM 37.4 °F 33.8 °F 33.8 °F 87% 30.23 in 5.0 mi NW 4.6 mph - N/A   Haze
2:35 AM 37.4 °F 34.9 °F 32.0 °F 81% 30.23 in 4.0 mi WNW 3.5 mph - N/A   Haze
2:55 AM 37.4 °F 34.9 °F 32.0 °F 81% 30.24 in 5.0 mi NW 3.5 mph - N/A   Haze
3:15 AM 37.4 °F - 32.0 °F 81% 30.24 in 5.0 mi Calm Calm - N/A   Haze
3:55 AM 37.4 °F - 33.8 °F 87% 30.25 in 5.0 mi Calm Calm - N/A   Scattered Clouds
4:15 AM 37.4 °F - 32.0 °F 81% 30.26 in 2.5 mi Calm Calm - N/A   Haze
4:35 AM 35.6 °F 32.8 °F 32.0 °F 87% 30.26 in 2.0 mi NW 3.5 mph - N/A   Haze
4:55 AM 35.6 °F 31.7 °F 32.0 °F 87% 30.27 in 3.0 mi NW 4.6 mph - N/A   Overcast
5:15 AM 37.4 °F 33.8 °F 32.0 °F 81% 30.27 in 4.0 mi NW 4.6 mph - N/A   Haze
5:35 AM 37.4 °F 33.8 °F 32.0 °F 81% 30.28 in 4.0 mi WNW 4.6 mph - N/A   Haze
5:55 AM 37.4 °F 33.8 °F 32.0 °F 81% 30.28 in 4.0 mi NW 4.6 mph - N/A   Haze
6:15 AM 35.6 °F 32.8 °F 32.0 °F 87% 30.29 in 3.0 mi NW 3.5 mph - N/A   Mostly Cloudy
6:35 AM 35.6 °F 32.8 °F 32.0 °F 87% 30.30 in 2.5 mi NW 3.5 mph - N/A   Scattered Clouds
6:55 AM 35.6 °F - 32.0 °F 87% 30.31 in 3.0 mi Calm Calm - N/A   Haze
7:15 AM 35.6 °F 32.8 °F 32.0 °F 87% 30.31 in 4.0 mi NW 3.5 mph - N/A   Overcast
7:35 AM 35.6 °F - 32.0 °F 87% 30.32 in 3.0 mi Calm Calm - N/A   Overcast
7:55 AM 35.6 °F - 32.0 °F 87% 30.32 in 2.0 mi Calm Calm - N/A   Overcast
8:15 AM 37.4 °F - 33.8 °F 87% 30.33 in 2.5 mi Calm Calm - N/A   Overcast
8:35 AM 37.4 °F - 33.8 °F 87% 30.33 in 4.0 mi Calm Calm - N/A   Haze
8:55 AM 39.2 °F 37.0 °F 33.8 °F 81% 30.34 in 5.0 mi NW 3.5 mph - N/A   Haze
9:15 AM 41.0 °F 39.0 °F 33.8 °F 76% 30.34 in 5.0 mi WNW 3.5 mph - N/A   Haze
9:35 AM 42.8 °F - 33.8 °F 70% 30.35 in 7.0 mi Calm Calm - N/A   Clear
9:55 AM 44.6 °F - 33.8 °F 66% 30.36 in 7.0 mi Calm Calm - N/A   Scattered Clouds
10:15 AM 44.6 °F - 33.8 °F 66% 30.37 in 10.0 mi Calm Calm - N/A   Scattered Clouds
10:35 AM 46.4 °F - 33.8 °F 62% 30.37 in 10.0 mi Calm Calm - N/A   Scattered Clouds
10:55 AM 46.4 °F 45.2 °F 33.8 °F 62% 30.37 in 10.0 mi West 3.5 mph - N/A   Scattered Clouds
11:15 AM 50.0 °F - 33.8 °F 54% 30.37 in 10.0 mi WSW 3.5 mph - N/A   Scattered Clouds
11:35 AM 51.8 °F - 32.0 °F 47% 30.37 in 10.0 mi WNW 4.6 mph - N/A   Clear
11:55 AM 51.8 °F - 32.0 °F 47% 30.37 in 10.0 mi SW 4.6 mph - N/A   Clear
12:15 PM 53.6 °F - 28.4 °F 38% 30.36 in 10.0 mi West 3.5 mph - N/A   Clear
12:35 PM 53.6 °F - 26.6 °F 35% 30.35 in 10.0 mi West 4.6 mph - N/A   Clear
12:55 PM 55.4 °F - 23.0 °F 29% 30.35 in 10.0 mi NW 4.6 mph - N/A   Clear
1:15 PM 55.4 °F - 23.0 °F 29% 30.34 in 10.0 mi WNW 8.1 mph - N/A   Clear
1:35 PM 53.6 °F - 23.0 °F 30% 30.34 in 10.0 mi WNW 5.8 mph - N/A   Clear
1:55 PM 55.4 °F - 21.2 °F 26% 30.33 in 10.0 mi WNW 5.8 mph - N/A   Clear
2:15 PM 55.4 °F - 21.2 °F 26% 30.32 in 10.0 mi WSW 5.8 mph - N/A   Clear
2:35 PM 55.4 °F - 21.2 °F 26% 30.32 in 10.0 mi West 3.5 mph - N/A   Clear
2:55 PM 57.2 °F - 19.4 °F 23% 30.31 in 10.0 mi WNW 5.8 mph - N/A   Clear
3:15 PM 55.4 °F - 21.2 °F 26% 30.31 in 10.0 mi West 4.6 mph - N/A   Clear
3:35 PM 55.4 °F - 23.0 °F 29% 30.31 in 10.0 mi West 4.6 mph - N/A   Clear
3:55 PM 55.4 °F - 24.8 °F 31% 30.31 in 10.0 mi West 5.8 mph - N/A   Clear
4:15 PM 53.6 °F - 24.8 °F 33% 30.31 in 10.0 mi West 4.6 mph - N/A   Clear
4:35 PM 51.8 °F - 26.6 °F 38% 30.31 in 10.0 mi WNW 6.9 mph - N/A   Clear
4:55 PM 50.0 °F - 26.6 °F 40% 30.31 in 10.0 mi WNW 6.9 mph - N/A   Clear
5:15 PM 50.0 °F - 26.6 °F 40% 30.31 in 10.0 mi WNW 6.9 mph - N/A   Clear
5:35 PM 48.2 °F - 26.6 °F 43% 30.32 in 10.0 mi WNW 6.9 mph - N/A   Clear
5:55 PM 46.4 °F 43.5 °F 26.6 °F 46% 30.32 in 10.0 mi WNW 5.8 mph - N/A   Clear
6:15 PM 46.4 °F 44.3 °F 26.6 °F 46% 30.32 in 10.0 mi WNW 4.6 mph - N/A   Clear
6:55 PM 42.8 °F 40.1 °F 26.6 °F 53% 30.33 in 10.0 mi WNW 4.6 mph - N/A   Clear
7:15 PM 42.8 °F 39.3 °F 26.6 °F 53% 30.33 in 10.0 mi NW 5.8 mph - N/A   Clear
7:35 PM 42.8 °F - 24.8 °F 49% 30.34 in 10.0 mi Calm Calm - N/A   Clear
7:55 PM 41.0 °F 37.1 °F 26.6 °F 57% 30.34 in 10.0 mi NW 5.8 mph - N/A   Clear
8:15 PM 41.0 °F 38.0 °F 26.6 °F 57% 30.34 in 10.0 mi WNW 4.6 mph - N/A   Clear
8:55 PM 39.2 °F 37.0 °F 26.6 °F 61% 30.35 in 10.0 mi NW 3.5 mph - N/A   Clear
9:15 PM 41.0 °F 39.0 °F 26.6 °F 57% 30.35 in 10.0 mi NW 3.5 mph - N/A   Clear
9:35 PM 39.2 °F - 26.6 °F 61% 30.35 in 10.0 mi Calm Calm - N/A   Clear
9:55 PM 39.2 °F - 26.6 °F 61% 30.35 in 10.0 mi Calm Calm - N/A   Clear
10:15 PM 39.2 °F - 23.0 °F 52% 30.35 in 10.0 mi Calm Calm - N/A   Clear
10:35 PM 37.4 °F - 24.8 °F 60% 30.35 in 10.0 mi Calm Calm - N/A   Clear
10:55 PM 39.2 °F 37.0 °F 24.8 °F 56% 30.35 in 10.0 mi South 3.5 mph - N/A   Clear
11:15 PM 37.4 °F - 24.8 °F 60% 30.35 in 10.0 mi Calm Calm - N/A   Clear
11:35 PM 37.4 °F - 23.0 °F 56% 30.35 in 10.0 mi Calm Calm - N/A   Clear
11:55 PM 33.8 °F - 26.6 °F 75% 30.35 in 10.0 mi Calm Calm - N/A   Clear